MIDAS 5 DEB, 18603

Orbit data source: Space-Track

MIDAS 5 DEB, 18603 is space debris in LEO originally from a launch on Mon, 09 Apr 1962 UTC via an ATLAS AGENA B launch vehicle from the Air Force Western Test Range (AFWTR). Debris objects in space refer to the collection of defunct objects orbiting the Earth. Examples of debris include non-operational satellites, rocket bodies, and fragments generated from explosions, collisions, or faulty payload assembly.

Loading next visibility...
Identifier
18603, 1962-010G
Orbit
LEO
Country
Flag of USUS
Related business
Manufacturer
MIT-LL
Mission
Spacecraft
Bus & Motor
WESTFORD DRAG, Unknown motor
Mass
~1 kg wet, ~1 kg dry
Launch date (UTC)
1962-04-09 (64 years ago)
Launch vehicle
ATLAS AGENA B
Launch site
Air Force Western Test Range (AFWTR)
Object type
Payload
Rocket body
Debris
Shape & HBR
Unknown
Radar Cross Section
Medium (>0.1 m² and <1 m²)

Expand to show TLE details & history
Last TLE update: 13 hours ago

TLE from 13 hours ago
0 MIDAS 5 DEB
1 18603U 62010G   25289.19323558 -.00000004  00000-0 -17400-2 0  9999
2 18603  86.6970   1.3568 0284558   1.3228  22.3382  9.41005356355597
Epoch: 2025-10-16T04:38Z
TLE epoch observation values (Epoch: 2025-10-16T04:38:15.554Z)
Latitude
24.91927°
Longitude
-91.63459°
Altitude
2,853.147 km
Speed
6.659 km/s
True Right ascension
00h 11m 32s
True Declination
24° 49' 04"
Sunlit
Object was in full shadow at epoch
Visualization orbit readout
Latitude
Unknown
Longitude
Unknown
Altitude
Unknown
Speed
Unknown
Apparent Right ascension
Unknown
Apparent Declination
Unknown
Sunlit
N/A
Visualization observer readout
Local Sidereal Time
11:52:17
Azimuth
Unknown
Elevation
Unknown
Doppler factor
Unknown
Orbital elements
Apogee altitude
3,366.241 km
Perigee altitude
2,827.017 km
Semi-major axis
9,474.766 km
Eccentricity
0.02846
Inclination
86.697°
RAAN
1.3568°
Arg. of periapsis
1.3228°
True anomaly
23.61953°
Mean anomaly
22.3382°
Eccentric anomaly
22.97458°
Mean motion
2.35337 °/min
Orbital period
152.97 mins
BSTAR
-0.00174
Loading maneuver chart data...
Computing Atmospheric mass density...
Loading historical data...
Loading historical data...
Loading historical data...
Loading historical data...
Loading historical data...
Loading historical data...
Loading historical data...

Documentation

Showing up to 5 results
|